Regional Weather Roundup
Issued by NWS

Home | Current Version | Previous Version | Graphics & Text | Print | Product List | Glossary On
Versions: 1 2 3 4 5 6 7 8 9 10 11 12 13 14 15 16 17 18 19 20 21 22 23 24 25 26 27 28 29 30 31 32 33 34 35 36 37 38 39 40 41 42 43 44 45 46 47 48 49 50
000
ASUS43 KLMK 160602
RWRKY
KENTUCKY REGIONAL WEATHER ROUNDUP
NATIONAL WEATHER SERVICE LOUISVILLE KY
200 AM EDT WED APR 16 2014

NOTE "FAIR" INDICATES FEW OR NO CLOUDS BELOW 12,000 FEET
WITH NO SIGNIFICANT WEATHER AND/OR OBSTRUCTIONS TO VISIBILITY.

KYZ001>023-026-027-061>063-070>075-160700-
WESTERN AND SOUTH CENTRAL KENTUCKY

CITY           SKY/WX    TMP DP  RH WIND       PRES   REMARKS
PADUCAH        FAIR      36  25  64 SE3       30.27R
HENDERSON      FAIR      32  27  80 CALM      30.28R
OWENSBORO      FAIR      34  25  70 CALM      30.29R
HOPKINSVILLE   FAIR      34  23  64 E3        30.28R
BOWLING GREEN  FAIR      34  20  56 CALM      30.29R
GLASGOW        NOT AVBL
$$

KYZ024-025-028>034-038-045-046-053-160700-
NORTH CENTRAL KENTUCKY

CITY           SKY/WX    TMP DP  RH WIND       PRES   REMARKS
LOUISVILLE/SDF FAIR      35  21  56 CALM      30.29R
LOUISVILLE/LOU FAIR      35  21  56 CALM      30.29R
FORT KNOX      FAIR      32  20  61 NE3       30.27R
$$

KYZ035>037-039>044-047>052-055>060-089>105-160700-
NORTHEAST KENTUCKY

CITY           SKY/WX    TMP DP  RH WIND       PRES   REMARKS
LEXINGTON      FAIR      30  18  60 CALM      30.26R
COVINGTON      FAIR      31  17  56 E7        30.26R WCI  24
FRANKFORT      FAIR      30  19  63 N3        30.27R
$$

KYZ054-064>069-076>088-106>120-160700-
SOUTHEAST KENTUCKY

CITY           SKY/WX    TMP DP  RH WIND       PRES   REMARKS
JACKSON        FAIR      30  19  63 VRB3      30.22R
LONDON         FAIR      32  21  64 NE5       30.24R WCI  27
SOMERSET       NOT AVBL
MIDDLESBORO    NOT AVBL
MONTICELLO     FAIR      29  24  81 CALM      30.28R
$$




USA.gov is the U.S. government's official web portal to all federal, state and local government web resources and services.